period_start,C,m1,H,J0,J1,J2,J3,J4,J5,JA,JB,JC,JD,JJ,JK,JN,#
2018-08-19 00:01:28,0.02,9.21,0.00,25.25,29.03,32.00,14.07,54.93,1023.03,2013.99,1237.22,1565.88,1698.92,599.97,595.17,49.71,0000 0000 0000 0000 000000
2018-08-19 00:06:29,-0.00,9.21,0.00,25.22,29.02,31.96,14.08,55.02,1023.03,2013.99,1237.13,1565.91,1698.95,600.19,595.41,49.76,0000 0000 0000 0000 000000
2018-08-19 00:11:30,0.00,9.21,0.00,25.21,29.01,31.97,13.99,55.04,1022.99,2013.99,1237.12,1565.92,1698.90,599.86,595.24,49.81,0000 0000 0000 0000 000000
2018-08-19 00:16:31,0.00,9.21,0.00,25.21,29.00,31.96,14.09,54.98,1022.99,2014.00,1237.05,1565.94,1698.95,600.00,595.42,49.86,0000 0000 0000 0000 000000
2018-08-19 00:21:33,0.00,9.21,0.00,25.22,29.00,31.94,14.12,55.05,1022.98,2014.00,1237.02,1565.94,1698.91,600.55,595.82,49.91,0000 0000 0000 0000 000000
2018-08-19 00:26:34,-0.00,9.21,0.00,25.20,28.98,31.93,14.00,54.96,1023.00,2014.00,1237.00,1565.96,1698.92,600.09,595.35,49.97,0000 0000 0000 0000 000000
2018-08-19 00:31:35,0.00,9.21,0.00,25.20,28.97,31.93,14.09,55.01,1023.00,2014.01,1237.00,1565.97,1698.95,600.25,595.61,50.02,0000 0000 0000 0000 000000
2018-08-19 00:36:36,0.01,9.21,0.00,25.18,28.97,31.93,13.98,55.08,1022.98,2014.04,1237.00,1565.94,1698.91,599.97,595.39,50.07,0000 0000 0000 0000 000000
2018-08-19 00:41:37,0.01,9.21,0.00,25.19,28.95,31.92,14.02,55.07,1022.99,2014.07,1236.99,1565.94,1698.86,599.62,595.10,50.12,0000 0000 0000 0000 000000
2018-08-19 00:46:38,0.00,9.21,0.00,25.18,28.95,31.90,14.07,54.98,1022.98,2014.09,1236.99,1565.86,1698.72,600.01,595.40,50.17,0000 0000 0000 0000 000000
2018-08-19 00:51:40,0.01,9.21,0.00,25.19,28.94,31.89,14.06,54.95,1023.00,2014.14,1236.96,1565.88,1698.77,600.15,595.53,50.22,0000 0000 0000 0000 000000
2018-08-19 00:56:41,0.02,9.21,0.00,25.17,28.92,31.89,14.03,55.05,1022.97,2014.17,1236.98,1565.82,1698.64,599.77,595.18,50.27,0000 0000 0000 0000 000000
2018-08-19 01:01:42,0.04,9.21,0.00,25.17,28.92,31.86,14.07,55.09,1022.97,2014.47,1236.94,1565.89,1698.66,599.92,595.37,50.32,0000 0000 0000 0000 000000
2018-08-19 01:06:43,0.04,9.21,0.00,25.17,28.91,31.85,14.01,55.02,1022.98,2014.84,1236.85,1565.94,1698.81,599.97,595.38,50.37,0000 0000 0000 0000 000000
2018-08-19 01:11:45,0.05,9.22,0.00,25.15,28.90,31.86,14.10,55.05,1022.96,2014.93,1236.50,1565.90,1698.77,600.17,595.52,50.42,0000 0000 0000 0000 000000
2018-08-19 01:16:46,0.01,9.22,0.00,25.15,28.90,31.86,14.07,55.07,1022.96,2014.95,1236.27,1565.89,1698.70,600.22,595.68,50.47,0000 0000 0000 0000 000000
2018-08-19 01:21:48,0.03,9.22,0.00,25.15,28.90,31.86,14.00,55.01,1022.96,2014.96,1236.07,1565.83,1698.51,600.08,595.42,50.52,0000 0000 0000 0000 000000
2018-08-19 01:26:49,0.02,9.22,0.00,25.15,28.88,31.84,14.01,55.08,1022.96,2014.98,1236.01,1565.70,1698.50,599.99,595.43,50.57,0000 0000 0000 0000 000000
2018-08-19 01:31:50,0.03,9.22,0.00,25.13,28.87,31.83,14.09,55.00,1022.97,2014.98,1236.01,1565.49,1698.13,600.13,595.69,50.62,0000 0000 0000 0000 000000
2018-08-19 01:36:51,0.01,9.22,0.00,25.12,28.87,31.82,14.04,55.02,1022.96,2014.98,1236.00,1565.36,1698.11,599.83,595.28,50.67,0000 0000 0000 0000 000000
2018-08-19 01:41:52,0.01,9.22,0.00,25.12,28.86,31.82,13.99,55.02,1022.96,2014.99,1236.00,1565.22,1698.06,599.97,595.44,50.72,0000 0000 0000 0000 000000
2018-08-19 01:46:54,0.01,9.22,0.00,25.12,28.85,31.83,14.11,55.08,1022.96,2014.99,1235.98,1565.14,1698.05,600.30,595.80,50.77,0000 0000 0000 0000 000000
2018-08-19 01:51:55,0.00,9.22,0.00,25.12,28.85,31.80,14.05,55.03,1022.96,2015.00,1235.96,1565.09,1698.03,600.27,595.79,50.82,0000 0000 0000 0000 000000
2018-08-19 01:56:57,0.02,9.22,0.00,25.12,28.85,31.80,14.06,55.08,1022.96,2015.00,1235.73,1565.07,1698.04,599.93,595.46,50.87,0000 0000 0000 0000 000000
2018-08-19 02:01:58,0.01,9.23,0.00,25.10,28.83,31.81,14.11,55.13,1022.96,2015.00,1235.56,1565.05,1698.01,599.89,595.45,50.92,0000 0000 0000 0000 000000
2018-08-19 02:06:59,0.02,9.23,0.00,25.10,28.82,31.79,14.01,55.06,1022.96,2015.00,1235.46,1565.05,1698.00,599.82,595.42,50.98,0000 0000 0000 0000 000000
2018-08-19 02:12:01,0.02,9.23,0.00,25.10,28.82,31.78,14.03,55.05,1022.96,2015.00,1235.11,1565.02,1698.00,599.86,595.48,51.03,0000 0000 0000 0000 000000
2018-08-19 02:17:02,0.00,9.23,0.00,25.10,28.82,31.76,14.03,55.15,1022.96,2015.01,1235.03,1565.01,1698.00,600.04,595.52,51.08,0000 0000 0000 0000 000000
2018-08-19 02:22:03,0.00,9.23,0.00,25.10,28.80,31.75,14.02,55.17,1022.96,2015.02,1235.00,1565.01,1698.00,599.96,595.49,51.13,0000 0000 0000 0000 000000
2018-08-19 02:27:05,0.00,9.23,0.00,25.10,28.80,31.75,14.03,55.09,1022.92,2015.03,1235.00,1565.01,1698.00,600.04,595.42,51.18,0000 0000 0000 0000 000000
2018-08-19 02:32:06,0.00,9.23,0.00,25.09,28.80,31.75,13.99,55.17,1022.85,2015.03,1235.00,1565.00,1698.00,599.80,595.40,51.23,0000 0000 0000 0000 000000
2018-08-19 02:37:07,-0.00,9.23,0.00,25.07,28.80,31.74,14.05,55.11,1022.82,2015.03,1235.00,1565.00,1698.00,600.24,595.68,51.28,0000 0000 0000 0000 000000
2018-08-19 02:42:08,0.00,9.23,0.00,25.07,28.78,31.74,14.00,55.19,1022.89,2015.03,1235.00,1565.00,1698.00,599.61,595.22,51.33,0000 0000 0000 0000 000000
2018-08-19 02:47:09,-0.00,9.23,0.00,25.07,28.77,31.72,13.98,55.07,1022.89,2015.07,1234.99,1565.00,1698.00,599.90,595.55,51.38,0000 0000 0000 0000 000000
2018-08-19 02:52:10,0.01,9.23,0.00,25.07,28.77,31.73,14.02,55.20,1022.90,2015.11,1234.99,1565.00,1698.00,599.93,595.51,51.43,0000 0000 0000 0000 000000
2018-08-19 02:57:11,0.00,9.23,0.00,25.07,28.77,31.73,14.02,55.12,1022.88,2015.17,1234.99,1565.00,1698.00,599.68,595.27,51.48,0000 0000 0000 0000 000000
2018-08-19 03:02:13,0.03,9.23,0.00,25.07,28.77,31.69,13.98,55.28,1022.89,2015.33,1234.99,1565.01,1697.99,599.75,595.36,51.53,0000 0000 0000 0000 000000
2018-08-19 03:07:14,-0.01,9.23,0.00,25.07,28.75,31.70,13.92,55.24,1022.85,2015.42,1234.99,1565.00,1697.99,599.63,595.27,51.58,0000 0000 0000 0000 000000
2018-08-19 03:12:15,0.01,9.23,0.00,25.07,28.75,31.68,14.02,55.24,1022.81,2015.47,1234.98,1565.00,1697.99,599.87,595.34,51.63,0000 0000 0000 0000 000000
2018-08-19 03:17:17,-0.01,9.23,0.00,25.07,28.75,31.69,14.04,55.18,1022.72,2015.31,1234.98,1565.00,1697.99,600.03,595.55,51.68,0000 0000 0000 0000 000000
2018-08-19 03:22:18,0.04,9.23,0.00,25.07,28.75,31.68,14.06,55.14,1022.69,2015.60,1234.96,1565.00,1697.99,600.24,595.66,51.73,0000 0000 0000 0000 000000
2018-08-19 03:27:19,0.01,9.23,0.00,25.07,28.75,31.69,13.95,55.15,1022.78,2015.67,1234.97,1565.01,1697.99,599.78,595.38,51.78,0000 0000 0000 0000 000000
2018-08-19 03:32:21,0.04,9.23,0.00,25.07,28.74,31.71,14.03,55.08,1022.74,2015.89,1234.96,1565.02,1697.99,599.87,595.37,51.83,0000 0000 0000 0000 000000
2018-08-19 03:37:22,0.00,9.24,0.00,25.07,28.73,31.65,14.08,55.11,1022.62,2015.95,1234.95,1565.03,1697.99,599.97,595.33,51.88,0000 0000 0000 0000 000000
2018-08-19 03:42:23,0.01,9.24,0.00,25.07,28.72,31.67,14.07,55.13,1022.58,2015.95,1234.86,1565.01,1697.99,599.90,595.26,51.94,0000 0000 0000 0000 000000
2018-08-19 03:47:24,-0.00,9.24,0.00,25.08,28.72,31.63,14.00,55.18,1022.52,2015.95,1234.78,1565.00,1697.99,599.80,595.21,51.99,0000 0000 0000 0000 000000
2018-08-19 03:52:26,-0.00,9.24,0.00,25.09,28.72,31.64,14.11,55.16,1022.55,2015.96,1234.82,1565.02,1697.99,600.28,595.66,52.04,0000 0000 0000 0000 000000
2018-08-19 03:57:27,-0.01,9.24,0.00,25.10,28.72,31.66,14.07,55.15,1022.57,2015.85,1234.82,1565.00,1697.99,600.21,595.55,52.09,0000 0000 0000 0000 000000
2018-08-19 04:02:28,0.01,9.24,0.00,25.09,28.72,31.64,13.97,55.15,1022.50,2015.80,1234.64,1565.00,1697.99,599.79,595.04,52.14,0000 0000 0000 0000 000000
2018-08-19 04:07:29,0.03,9.24,0.00,25.09,28.72,31.63,13.97,55.14,1022.49,2015.82,1234.46,1565.00,1697.99,599.62,594.94,52.19,0000 0000 0000 0000 000000
2018-08-19 04:12:31,0.00,9.24,0.00,25.10,28.72,31.63,14.00,55.05,1022.48,2015.87,1234.46,1565.00,1697.99,600.28,595.38,52.24,0000 0000 0000 0000 000000
2018-08-19 04:17:32,0.03,9.24,0.00,25.10,28.72,31.63,13.99,55.10,1022.48,2015.89,1234.23,1565.00,1697.99,599.90,595.23,52.29,0000 0000 0000 0000 000000
2018-08-19 04:22:34,0.01,9.24,0.00,25.10,28.72,31.66,14.04,55.17,1022.48,2015.95,1234.08,1565.00,1697.99,600.02,595.24,52.34,0000 0000 0000 0000 000000
2018-08-19 04:27:35,0.00,9.24,0.00,25.09,28.72,31.63,14.02,55.13,1022.48,2015.95,1234.05,1565.00,1697.99,600.05,595.35,52.39,0000 0000 0000 0000 000000
2018-08-19 04:32:36,0.00,9.24,0.00,25.10,28.72,31.61,14.03,55.02,1022.48,2015.94,1234.03,1565.00,1697.99,600.10,595.40,52.44,0000 0000 0000 0000 000000
2018-08-19 04:37:37,-0.00,9.24,0.00,25.10,28.72,31.59,14.03,54.93,1022.43,2015.92,1234.02,1565.00,1697.99,600.43,595.70,52.49,0000 0000 0000 0000 000000
2018-08-19 04:42:38,0.01,9.24,0.00,25.11,28.72,31.60,14.01,55.02,1022.36,2015.95,1234.00,1565.00,1697.99,600.02,595.14,52.54,0000 0000 0000 0000 000000
2018-08-19 04:47:39,-0.00,9.24,0.00,25.11,28.72,31.59,13.98,55.16,1022.35,2015.94,1234.01,1565.00,1697.99,599.50,594.74,52.59,0000 0000 0000 0000 000000
2018-08-19 04:52:41,0.00,9.24,0.00,25.12,28.72,31.65,13.94,55.13,1022.12,2015.96,1234.00,1565.00,1697.99,599.86,594.87,52.64,0000 0000 0000 0000 000000
2018-08-19 04:57:42,0.00,9.24,0.00,25.12,28.72,31.65,14.05,55.03,1022.10,2015.97,1234.02,1565.00,1697.99,600.21,595.23,52.69,0000 0000 0000 0000 000000
2018-08-19 05:02:44,-0.00,9.24,0.00,25.13,28.72,31.62,13.98,55.16,1022.03,2015.97,1234.00,1565.00,1697.99,600.02,594.91,52.74,0000 0000 0000 0000 000000
2018-08-19 05:07:45,0.00,9.24,0.00,25.12,28.72,31.60,14.01,55.08,1022.01,2015.96,1234.00,1565.00,1697.99,599.78,594.77,52.80,0000 0000 0000 0000 000000
2018-08-19 05:12:47,0.00,9.24,0.00,25.12,28.72,31.62,13.98,55.02,1022.00,2015.97,1234.00,1565.00,1697.99,599.82,594.72,52.85,0000 0000 0000 0000 000000
2018-08-19 05:17:48,0.00,9.24,0.00,25.14,28.72,31.58,13.99,55.25,1022.00,2015.97,1234.00,1565.00,1697.99,599.81,594.80,52.90,0000 0000 0000 0000 000000
2018-08-19 05:22:49,0.00,9.24,0.00,25.15,28.72,31.61,14.07,55.13,1021.99,2015.98,1234.00,1565.00,1697.99,600.36,595.12,52.95,0000 0000 0000 0000 000000
2018-08-19 05:27:50,-0.00,9.24,0.00,25.16,28.72,31.61,13.96,55.16,1021.99,2015.97,1233.98,1565.00,1697.99,599.74,594.62,53.00,0000 0000 0000 0000 000000
2018-08-19 05:32:52,-0.00,9.24,0.00,25.16,28.72,31.63,14.03,55.20,1021.99,2015.97,1233.99,1565.00,1697.98,600.16,594.96,53.05,0000 0000 0000 0000 000000
2018-08-19 05:37:53,-0.00,9.24,0.00,25.16,28.72,31.61,13.99,55.27,1021.99,2015.97,1233.98,1565.00,1697.98,599.86,594.71,53.10,0000 0000 0000 0000 000000
2018-08-19 05:42:54,0.00,9.24,0.00,25.17,28.72,31.64,14.07,55.29,1021.99,2015.95,1233.94,1565.00,1697.96,600.13,594.84,53.15,0000 0000 0000 0000 000000
2018-08-19 05:47:56,0.00,9.24,0.00,25.17,28.73,31.63,14.01,55.17,1021.99,2015.97,1233.96,1565.00,1697.99,599.82,594.62,53.20,0000 0000 0000 0000 000000
2018-08-19 05:52:57,0.01,9.24,0.00,25.17,28.74,31.63,14.03,55.20,1021.98,2015.97,1233.92,1565.00,1697.96,599.93,594.66,53.25,0000 0000 0000 0000 000000
2018-08-19 05:57:58,0.00,9.24,0.00,25.18,28.75,31.60,14.01,55.20,1021.96,2015.96,1233.81,1565.00,1697.95,599.94,594.70,53.30,0000 0000 0000 0000 000000
2018-08-19 06:02:59,0.02,9.24,0.00,25.19,28.75,31.61,13.97,55.11,1021.98,2015.98,1233.56,1564.99,1697.95,599.81,594.63,53.35,0000 0000 0000 0000 000000
2018-08-19 06:08:00,0.01,9.24,0.00,25.20,28.75,31.60,14.06,55.19,1021.99,2015.95,1233.46,1564.99,1697.93,600.22,595.04,53.40,0000 0000 0000 0000 000000
2018-08-19 06:13:01,0.01,9.24,0.00,25.20,28.75,31.63,13.99,55.27,1021.95,2015.93,1233.29,1564.99,1697.87,600.09,594.83,53.45,0000 0000 0000 0000 000000
2018-08-19 06:18:03,0.01,9.24,0.00,25.20,28.75,31.60,13.95,55.23,1021.81,2015.94,1233.23,1564.98,1697.90,599.54,594.27,53.50,0000 0000 0000 0000 000000
2018-08-19 06:23:04,0.02,9.24,0.00,25.20,28.75,31.63,13.98,55.25,1021.80,2015.97,1233.09,1564.99,1697.92,599.48,594.18,53.55,0000 0000 0000 0000 000000
2018-08-19 06:28:05,-0.00,9.24,0.00,25.20,28.75,31.64,14.09,55.15,1021.78,2015.98,1233.07,1564.98,1697.94,600.19,594.80,53.60,0000 0000 0000 0000 000000
2018-08-19 06:33:07,-0.00,9.24,0.00,25.20,28.75,31.63,14.00,55.13,1021.78,2015.95,1233.03,1564.98,1697.93,600.10,594.67,53.65,0000 0000 0000 0000 000000
2018-08-19 06:38:08,0.00,9.24,0.00,25.20,28.77,31.63,14.06,55.07,1021.53,2015.95,1233.02,1564.98,1697.87,599.95,594.27,53.70,0000 0000 0000 0000 000000
2018-08-19 06:43:09,-0.00,9.24,0.00,25.20,28.77,31.64,14.00,55.10,1021.52,2015.97,1233.00,1564.98,1697.91,600.04,594.49,53.76,0000 0000 0000 0000 000000
2018-08-19 06:48:11,0.00,9.24,0.00,25.22,28.77,31.65,14.00,55.30,1021.50,2015.96,1233.00,1564.98,1697.78,600.11,594.58,53.81,0000 0000 0000 0000 000000
2018-08-19 06:53:12,-0.00,9.24,0.00,25.22,28.77,31.63,14.01,55.25,1021.50,2015.94,1233.00,1564.98,1697.71,599.64,594.07,53.86,0000 0000 0000 0000 000000
2018-08-19 06:58:13,-0.00,9.24,0.00,25.24,28.77,31.61,13.93,55.27,1021.50,2015.93,1233.00,1564.98,1697.78,599.63,594.05,53.91,0000 0000 0000 0000 000000
2018-08-19 07:03:15,0.00,9.24,0.00,25.25,28.77,31.62,14.02,55.22,1021.50,2015.93,1233.00,1564.98,1697.67,600.19,594.58,53.96,0000 0000 0000 0000 000000
2018-08-19 07:08:16,-0.00,9.24,0.00,25.26,28.79,31.61,13.99,55.06,1021.50,2015.96,1233.00,1564.98,1697.65,599.80,594.35,54.01,0000 0000 0000 0000 000000
2018-08-19 07:13:17,-0.00,9.24,0.00,25.27,28.80,31.58,13.94,55.21,1021.50,2015.88,1233.00,1564.97,1697.52,599.88,594.28,54.06,0000 0000 0000 0000 000000
2018-08-19 07:18:18,-0.00,9.24,0.00,25.28,28.80,31.55,14.06,55.08,1021.50,2015.91,1233.00,1564.98,1697.60,600.32,594.54,54.11,0000 0000 0000 0000 000000
2018-08-19 07:23:19,0.00,9.24,0.00,25.30,28.80,31.60,14.00,55.13,1021.50,2015.88,1233.00,1564.98,1697.53,599.92,594.14,54.16,0000 0000 0000 0000 000000
2018-08-19 07:28:20,-0.01,9.24,0.00,25.31,28.80,31.55,13.98,55.25,1021.50,2015.75,1233.00,1564.96,1697.19,599.85,594.07,54.21,0000 0000 0000 0000 000000
2018-08-19 07:33:21,-0.02,9.24,0.00,25.32,28.82,31.54,13.96,55.11,1021.49,2015.68,1233.00,1564.94,1697.10,600.03,594.29,54.26,0000 0000 0000 0000 000000
2018-08-19 07:38:23,-0.02,9.24,0.00,25.34,28.82,31.54,13.98,55.15,1021.46,2015.47,1233.00,1564.95,1697.09,600.01,594.22,54.31,0000 0000 0000 0000 000000
2018-08-19 07:43:24,-0.02,9.24,0.00,25.35,28.82,31.58,13.93,55.05,1021.43,2015.22,1232.99,1564.86,1697.04,599.72,593.94,54.36,0000 0000 0000 0000 000000
2018-08-19 07:48:25,-0.00,9.24,0.00,25.35,28.84,31.60,14.03,55.10,1021.40,2015.11,1232.97,1564.79,1697.03,600.31,594.54,54.41,0000 0000 0000 0000 000000
2018-08-19 07:53:26,0.02,9.24,0.00,25.35,28.85,31.64,14.07,55.03,1021.42,2015.11,1232.85,1564.75,1697.02,600.30,594.37,54.46,0000 0000 0000 0000 000000
2018-08-19 07:58:28,0.03,9.24,0.00,25.35,28.85,31.62,13.96,55.08,1021.24,2015.08,1232.57,1564.64,1697.01,599.72,593.68,54.51,0000 0000 0000 0000 000000
2018-08-19 08:03:29,0.02,9.24,0.00,25.36,28.85,31.64,13.98,55.08,1021.14,2015.09,1232.27,1564.62,1697.02,599.80,593.77,54.56,0000 0000 0000 0000 000000
2018-08-19 08:08:30,0.02,9.24,0.00,25.37,28.86,31.61,14.00,55.17,1021.07,2015.06,1232.07,1564.55,1697.04,599.96,593.92,54.61,0000 0000 0000 0000 000000
2018-08-19 08:13:31,0.02,9.25,0.00,25.37,28.87,31.62,13.98,55.13,1021.03,2015.08,1232.03,1564.48,1697.04,599.79,593.71,54.67,0000 0000 0000 0000 000000
2018-08-19 08:18:33,0.00,9.25,0.00,25.37,28.87,31.65,13.99,55.12,1021.02,2015.06,1232.01,1564.41,1697.02,600.27,594.13,54.72,0000 0000 0000 0000 000000
2018-08-19 08:23:34,0.01,9.25,0.00,25.37,28.88,31.68,14.00,55.06,1021.01,2015.09,1232.00,1564.24,1697.01,599.91,593.76,54.77,0000 0000 0000 0000 000000
2018-08-19 08:28:35,0.01,9.25,0.00,25.39,28.90,31.67,14.02,55.11,1021.01,2015.07,1232.00,1564.14,1697.02,600.14,593.96,54.82,0000 0000 0000 0000 000000
2018-08-19 08:33:37,-0.01,9.25,0.00,25.41,28.90,31.67,14.10,55.11,1021.01,2015.03,1232.00,1564.15,1697.01,600.01,593.77,54.87,0000 0000 0000 0000 000000
2018-08-19 08:38:38,0.00,9.25,0.00,25.42,28.90,31.66,14.03,55.07,1021.01,2015.08,1232.00,1564.18,1697.01,600.06,593.89,54.92,0000 0000 0000 0000 000000
2018-08-19 08:43:39,-0.00,9.25,0.00,25.43,28.90,31.63,13.94,55.13,1021.00,2015.06,1232.00,1564.17,1697.01,599.90,593.59,54.97,0000 0000 0000 0000 000000
2018-08-19 08:48:41,-0.00,9.25,0.00,25.44,28.92,31.65,14.04,55.05,1020.99,2015.04,1232.00,1564.16,1697.01,600.15,593.92,55.02,0000 0000 0000 0000 000000
2018-08-19 08:53:42,-0.00,9.25,0.00,25.45,28.92,31.63,14.02,55.10,1020.96,2015.03,1231.98,1564.14,1697.01,600.15,593.88,55.07,0000 0000 0000 0000 000000
2018-08-19 08:58:44,0.01,9.25,0.00,25.46,28.92,31.64,13.94,55.11,1020.97,2015.01,1231.98,1564.08,1697.00,599.97,593.71,55.12,0000 0000 0000 0000 000000
2018-08-19 09:03:45,0.00,9.25,0.00,25.46,28.94,31.65,14.00,55.03,1020.91,2015.01,1231.95,1564.06,1697.00,600.02,593.64,55.17,0000 0000 0000 0000 000000
2018-08-19 09:08:46,0.00,9.25,0.00,25.47,28.95,31.63,14.01,55.07,1020.84,2015.00,1231.94,1564.02,1696.99,600.19,593.72,55.22,0000 0000 0000 0000 000000
2018-08-19 09:13:47,0.01,9.25,0.00,25.50,28.95,31.62,14.03,55.01,1020.87,2015.00,1231.80,1564.04,1696.99,600.02,593.47,55.27,0000 0000 0000 0000 000000
2018-08-19 09:18:49,0.02,9.25,0.00,25.50,28.96,31.64,14.03,55.12,1020.82,2015.00,1231.57,1564.05,1696.99,600.37,593.79,55.32,0000 0000 0000 0000 000000
2018-08-19 09:23:50,0.02,9.25,0.00,25.52,28.97,31.65,13.96,55.00,1020.65,2015.00,1231.27,1564.06,1697.00,600.23,593.37,55.37,0000 0000 0000 0000 000000
2018-08-19 09:28:51,-0.00,9.25,0.00,25.54,28.97,31.61,13.97,55.02,1020.55,2015.00,1231.33,1564.04,1697.00,600.24,593.51,55.42,0000 0000 0000 0000 000000
2018-08-19 09:33:52,-0.01,9.25,0.00,25.55,28.99,31.61,13.95,55.00,1020.52,2015.00,1231.39,1564.03,1696.99,599.80,593.02,55.47,0000 0000 0000 0000 000000
2018-08-19 09:38:53,0.01,9.25,0.00,25.57,29.00,31.62,14.04,55.07,1020.52,2014.96,1231.25,1564.00,1696.98,600.13,593.27,55.52,0000 0000 0000 0000 000000
2018-08-19 09:43:55,0.01,9.25,0.00,25.59,29.00,31.60,14.03,55.04,1020.52,2014.91,1231.07,1564.00,1696.94,600.41,593.66,55.57,0000 0000 0000 0000 000000
2018-08-19 09:48:56,-0.01,9.25,0.00,25.61,29.02,31.61,13.95,55.12,1020.52,2014.78,1231.03,1564.00,1696.84,599.92,593.00,55.63,0000 0000 0000 0000 000000
2018-08-19 09:53:57,-0.04,9.25,0.00,25.62,29.02,31.63,13.92,55.21,1020.50,2014.41,1231.00,1564.00,1696.47,599.97,593.17,55.68,0000 0000 0000 0000 000000
2018-08-19 09:58:58,-0.02,9.25,0.00,25.63,29.04,31.64,13.97,55.27,1020.48,2014.12,1231.00,1563.99,1696.12,600.05,593.04,55.73,0000 0000 0000 0000 000000
2018-08-19 10:04:00,0.01,9.25,0.00,25.64,29.05,31.66,13.95,55.15,1020.45,2014.13,1230.98,1563.99,1696.09,599.92,593.06,55.78,0000 0000 0000 0000 000000
2018-08-19 10:09:01,-0.00,9.25,0.00,25.65,29.06,31.66,13.96,55.18,1020.43,2014.06,1230.97,1563.98,1696.05,599.81,592.74,55.83,0000 0000 0000 0000 000000
2018-08-19 10:14:02,0.00,9.25,0.00,25.65,29.07,31.67,13.93,55.09,1020.36,2014.07,1230.93,1563.98,1696.04,599.71,592.68,55.88,0000 0000 0000 0000 000000
2018-08-19 10:19:04,0.04,9.25,0.00,25.65,29.08,31.70,13.98,55.08,1020.44,2014.02,1230.49,1563.96,1696.00,600.00,592.81,55.93,0000 0000 0000 0000 000000
2018-08-19 10:24:05,0.02,9.25,0.00,25.65,29.10,31.71,13.97,55.13,1020.50,2014.01,1230.11,1563.87,1696.00,600.00,592.90,55.98,0000 0000 0000 0000 000000
2018-08-19 10:29:06,0.01,9.25,0.00,25.65,29.10,31.70,13.91,55.10,1020.50,2014.01,1230.02,1563.86,1696.00,599.80,592.63,56.03,0000 0000 0000 0000 000000
2018-08-19 10:34:08,0.02,9.25,0.00,25.65,29.11,31.71,13.97,54.97,1020.48,2014.00,1230.01,1563.55,1696.00,600.13,593.13,56.08,0000 0000 0000 0000 000000
2018-08-19 10:39:09,0.01,9.25,0.00,25.65,29.12,31.73,13.97,55.02,1020.52,2014.00,1230.00,1563.41,1696.00,600.08,593.09,56.13,0000 0000 0000 0000 000000
2018-08-19 10:44:11,0.01,9.25,0.00,25.65,29.12,31.75,13.89,54.97,1020.51,2014.00,1230.00,1563.25,1696.00,599.84,592.85,56.18,0000 0000 0000 0000 000000
2018-08-19 10:49:12,-0.00,9.25,0.00,25.66,29.14,31.74,13.89,54.92,1020.50,2014.00,1230.00,1563.16,1695.99,600.00,592.89,56.23,0000 0000 0000 0000 000000
2018-08-19 10:54:14,0.01,9.25,0.00,25.67,29.15,31.75,13.95,55.02,1020.24,2013.99,1229.98,1563.07,1695.98,600.03,592.90,56.28,0000 0000 0000 0000 000000
2018-08-19 10:59:15,0.00,9.25,0.00,25.71,29.15,31.74,13.96,55.10,1020.09,2013.99,1229.97,1563.03,1695.95,599.88,592.56,56.33,0000 0000 0000 0000 000000
2018-08-19 11:04:16,0.04,9.25,0.00,25.75,29.15,31.73,13.97,55.13,1020.06,2013.99,1229.65,1563.00,1695.90,599.84,592.40,56.38,0000 0000 0000 0000 000000
2018-08-19 11:09:17,0.02,9.26,0.00,25.79,29.17,31.76,13.93,54.96,1020.05,2013.99,1229.26,1563.01,1695.87,599.90,592.36,56.43,0000 0000 0000 0000 000000
2018-08-19 11:14:19,0.02,9.26,0.00,25.81,29.17,31.78,13.95,54.93,1020.04,2013.98,1229.06,1563.01,1695.77,599.93,592.36,56.48,0000 0000 0000 0000 000000
2018-08-19 11:19:20,0.01,9.26,0.00,25.79,29.17,31.78,13.89,54.90,1020.04,2013.98,1229.02,1563.00,1695.62,599.85,592.30,56.54,0000 0000 0000 0000 000000
2018-08-19 11:24:21,0.00,9.26,0.00,25.75,29.18,31.87,13.96,54.93,1020.04,2013.98,1229.00,1563.00,1695.41,600.22,592.74,56.59,0000 0000 0000 0000 000000
2018-08-19 11:29:22,0.01,9.26,0.00,25.72,29.20,31.91,13.98,54.97,1020.04,2013.98,1229.00,1563.00,1695.42,600.11,592.71,56.64,0000 0000 0000 0000 000000
2018-08-19 11:34:24,0.01,9.26,0.00,25.68,29.20,32.01,13.90,55.05,1020.04,2013.99,1229.00,1563.00,1695.28,599.94,592.59,56.69,0000 0000 0000 0000 000000
2018-08-19 11:39:25,0.01,9.26,0.00,25.65,29.20,32.07,13.96,55.03,1020.03,2013.97,1228.98,1563.00,1695.16,599.95,592.70,56.74,0000 0000 0000 0000 000000
2018-08-19 11:44:26,-0.00,9.26,0.00,25.62,29.20,32.09,13.99,55.20,1020.01,2013.96,1228.96,1563.00,1695.05,600.18,593.06,56.79,0000 0000 0000 0000 000000
2018-08-19 11:49:27,0.02,9.26,0.00,25.61,29.20,32.13,13.98,55.31,1019.80,2013.97,1228.83,1563.00,1695.06,600.29,592.99,56.84,0000 0000 0000 0000 000000
2018-08-19 11:54:29,0.02,9.26,0.00,25.57,29.20,32.14,13.98,55.28,1019.58,2013.96,1228.48,1563.00,1695.04,599.80,592.38,56.89,0000 0000 0000 0000 000000
2018-08-19 11:59:30,0.02,9.26,0.00,25.56,29.20,32.16,14.01,55.18,1019.56,2013.96,1228.11,1562.98,1695.00,599.98,592.78,56.94,0000 0000 0000 0000 000000
2018-08-19 12:04:31,0.01,9.26,0.00,25.55,29.20,32.12,13.97,55.19,1019.55,2013.94,1228.01,1562.94,1695.00,599.80,592.54,56.99,0000 0000 0000 0000 000000
2018-08-19 12:09:33,0.00,9.26,0.00,25.53,29.20,32.14,14.01,55.24,1019.55,2013.97,1228.00,1562.94,1694.99,599.96,592.61,57.04,0000 0000 0000 0000 000000
2018-08-19 12:14:34,0.00,9.26,0.00,25.52,29.19,32.15,14.00,55.27,1019.53,2013.97,1227.99,1562.93,1694.99,599.88,592.59,57.09,0000 0000 0000 0000 000000
2018-08-19 12:19:36,0.00,9.26,0.00,25.51,29.18,32.14,13.98,55.11,1019.37,2013.98,1227.99,1562.90,1694.99,600.08,592.68,57.14,0000 0000 0000 0000 000000
2018-08-19 12:24:37,0.03,9.26,0.00,25.49,29.17,32.13,13.96,55.13,1019.31,2013.97,1227.87,1562.82,1694.98,599.95,592.48,57.19,0000 0000 0000 0000 000000
2018-08-19 12:29:38,0.02,9.27,0.00,25.47,29.17,32.15,14.07,55.25,1019.51,2013.98,1227.48,1562.76,1694.97,600.19,592.94,57.24,0000 0000 0000 0000 000000
2018-08-19 12:34:40,0.03,9.27,0.00,25.47,29.17,32.14,13.96,55.27,1019.50,2013.98,1227.11,1562.79,1694.97,599.95,592.71,57.29,0000 0000 0000 0000 000000
2018-08-19 12:39:41,0.02,9.27,0.00,25.45,29.17,32.12,14.00,55.30,1019.55,2013.98,1227.02,1562.64,1694.94,599.92,592.76,57.34,0000 0000 0000 0000 000000
2018-08-19 12:44:43,0.02,9.27,0.00,25.42,29.15,32.10,14.03,55.27,1019.55,2013.98,1227.00,1562.39,1694.92,600.11,593.01,57.39,0000 0000 0000 0000 000000
2018-08-19 12:49:44,0.01,9.27,0.00,25.43,29.15,32.11,13.99,55.30,1019.54,2013.99,1227.00,1562.28,1694.88,600.06,592.99,57.45,0000 0000 0000 0000 000000
2018-08-19 12:54:45,0.01,9.27,0.00,25.43,29.15,32.12,13.90,55.44,1019.46,2013.99,1226.98,1562.14,1694.70,600.12,592.91,57.50,0000 0000 0000 0000 000000